(311852) = 2001 YL17 = 2006 VU151

Discovered at Palomar on 2006-11-09 by NEAT.

Orbit

Orbit type: Main Belt

Note: WebGL enabled browser required.

epoch2024-03-31.0
epoch JD2460400.5
perihelion date2022-04-05.42153
perihelion JD2459674.92153
argument of perihelion (°)96.05746
ascending node (°)266.09184
inclination (°)12.18977
eccentricity0.0776696
perihelion distance (AU)2.8222637
Tisserand w.r.t. Jupiter3.2
ΔV w.r.t. Earth (km/sec)11.1
semimajor axis (AU)3.0599269
mean anomaly (°)133.60468
mean daily motion (°/day)0.18413540
aphelion distance (AU)3.298
period (years)5.35
P-vector [x]0.97692815
P-vector [y]-0.04771094
P-vector [z]0.20817075
Q-vector [x]-0.03512983
Q-vector [y]0.92555101
Q-vector [z]0.37698967
absolute magnitude15.85
phase slope0.15
uncertainty0
referenceMPEC 2024-E23
observations used289
oppositions15
arc length (days)8111
first opposition used2001
last opposition used2024
residual rms (arc-secs)0.77
perturbers coarse indicatorM-v
perturbers precise indicator003Ek
first observation date used2001-12-17.0
last observation date used2024-03-02.0
computer nameMPCLINUX
JD of orbit computation2455910.371458
perihelion JD uncertainty (days)9.9320E-04
argument of perihelion uncertainty (°)2.1419E-04
ascending node uncertainty (°)7.2787E-05
inclination uncertainty (°)2.2534E-05
eccentricity uncertainty 1.7497E-07
perihelion distance uncertainty (AU)6.3223E-07
Minimum Orbit Intersection Distances (in AU)
for orbit epoch: 2460400.5, reference: E2024-E23
Mercury2.47204
Venus2.13048
Earth1.85399
Mars1.43202
Jupiter2.09364
Saturn5.96796
Uranus15.2507
Neptune26.9513

Observations

298 total observations over interval: 2001 12 17.31224 – 2024 03 02.159705
These data are available for download (format description).

Date (UT) J2000 RA J2000 Dec Magn Location Ref
2001 12 17.31224 05 47 15.28 +23 25 59.5 20.2   704 – Lincoln Laboratory ETS, New Mexico MPS 45446
2001 12 17.32738 05 47 14.34 +23 25 56.3 20.3   704 – Lincoln Laboratory ETS, New Mexico MPS 45446
2001 12 17.34252 05 47 13.52 +23 25 52.3 19.8   704 – Lincoln Laboratory ETS, New Mexico MPS 45446
2001 12 19.31949 05 45 21.28 +23 18 09.3 19.7   704 – Lincoln Laboratory ETS, New Mexico MPS 45446
2001 12 19.33463 05 45 20.37 +23 18 05.9 19.4   704 – Lincoln Laboratory ETS, New Mexico MPS 45446
2001 12 19.34989 05 45 19.47 +23 18 01.4 19.6   704 – Lincoln Laboratory ETS, New Mexico MPS 45446
2005 07 30.21606 21 03 07.80 -02 31 12.8 19.9   644 – Palomar Mountain/NEAT MPS 192477
2005 07 30.24617 21 03 06.35 -02 31 12.3 19.3   644 – Palomar Mountain/NEAT MPS 192477
2005 07 30.29943 21 03 03.66 -02 31 12.3 19.6   644 – Palomar Mountain/NEAT MPS 192477
2006 10 19.46954 03 44 33.75 +30 43 03.6 20.0 V 703 – Catalina Sky Survey MPS 239512
2006 10 19.47941 03 44 33.57 +30 43 01.4 20.0 V 703 – Catalina Sky Survey MPS 239512
2006 10 19.48934 03 44 33.18 +30 42 59.9 19.9 V 703 – Catalina Sky Survey MPS 239512
2006 10 19.49920 03 44 32.64 +30 43 00.8 19.1 V 703 – Catalina Sky Survey MPS 239512
2006 11 02.34215 03 34 55.99 +29 55 28.6 19.9 V G96 – Mt. Lemmon Survey MPS 192477
2006 11 02.34788 03 34 55.70 +29 55 27.0 19.8 V G96 – Mt. Lemmon Survey MPS 192477
2006 11 02.35356 03 34 55.45 +29 55 25.5 19.9 V G96 – Mt. Lemmon Survey MPS 192477
2006 11 02.35915 03 34 55.12 +29 55 24.2 19.9 V G96 – Mt. Lemmon Survey MPS 192477
2006 11 09.37495 03 28 59.23 +29 19 34.8 20.5 R 644 – Palomar Mountain/NEAT MPS 190733
2006 11 09.39569 03 28 58.10 +29 19 27.1 20.5 R 644 – Palomar Mountain/NEAT MPS 190733
2006 11 09.41644 03 28 56.99 +29 19 20.6 20.4 R 644 – Palomar Mountain/NEAT MPS 190733
2006 11 15.46397 03 23 36.52 +28 42 47.6 19.5 V G96 – Mt. Lemmon Survey MPS 190733
2006 11 15.46674 03 23 36.34 +28 42 46.8 19.5 V G96 – Mt. Lemmon Survey MPS 190733
2006 11 15.46965 03 23 36.20 +28 42 45.5 19.7 V G96 – Mt. Lemmon Survey MPS 190733
2006 11 15.47243 03 23 36.02 +28 42 44.1 19.7 V G96 – Mt. Lemmon Survey MPS 190733
2006 11 22.25485 03 17 41.13 +27 56 52.2 20.1 V 703 – Catalina Sky Survey MPS 192477
2006 11 22.26649 03 17 40.48 +27 56 46.4 19.9 V 703 – Catalina Sky Survey MPS 192477
2006 11 22.27811 03 17 39.91 +27 56 42.1 20.1 V 703 – Catalina Sky Survey MPS 192477
2006 11 22.28977 03 17 39.15 +27 56 37.5 20.2 V 703 – Catalina Sky Survey MPS 192477
2008 02 03.26957 09 03 49.75 +02 40 48.5 20.1 V 703 – Catalina Sky Survey MPS 236344
2008 02 03.27564 09 03 49.32 +02 40 48.7 21.0 V 703 – Catalina Sky Survey MPS 236344
2008 02 03.28164 09 03 49.14 +02 40 49.4 20.7 V 703 – Catalina Sky Survey MPS 236344
2008 02 03.28767 09 03 48.70 +02 40 50.2 20.2 V 703 – Catalina Sky Survey MPS 236344
2010 06 16.458677 19 12 23.806 -18 08 02.70 21.10 g F51 – Pan-STARRS 1, Haleakala MPS 337378
2010 06 16.469872 19 12 23.298 -18 08 00.95 21.22 g F51 – Pan-STARRS 1, Haleakala MPS 337378
2011 09 28.40155 01 00 28.62 +25 09 45.1 19.6 V 703 – Catalina Sky Survey MPS 392684
2011 09 28.40716 01 00 28.26 +25 09 45.5 20.0 V 703 – Catalina Sky Survey MPS 392684
2011 09 28.41289 01 00 28.04 +25 09 43.5 21.3 V 703 – Catalina Sky Survey MPS 392684
2011 09 28.41868 01 00 27.82 +25 09 42.8 19.9 V 703 – Catalina Sky Survey MPS 392684
2011 12 13.80735 00 35 14.75 +16 54 08.1 20.0   J43 – Oukaimeden Observatory, Marrakech MPS 403847
2011 12 13.82612 00 35 15.26 +16 54 04.3 20.2   J43 – Oukaimeden Observatory, Marrakech MPS 403847
2011 12 13.84488 00 35 15.75 +16 54 00.2 20.2   J43 – Oukaimeden Observatory, Marrakech MPS 403847
2012 12 16.20294 07 42 34.67 +15 33 16.4 20.7 R J04 – ESA Optical Ground Station, Tenerife MPS 448490
2012 12 16.21452 07 42 34.22 +15 33 14.4 20.5 R J04 – ESA Optical Ground Station, Tenerife MPS 448490
2012 12 16.22609 07 42 33.70 +15 33 13.0 20.7 R J04 – ESA Optical Ground Station, Tenerife MPS 448490
2012 12 16.23766 07 42 33.23 +15 33 11.0 20.4 R J04 – ESA Optical Ground Station, Tenerife MPS 448490
2013 01 05.29998 07 26 10.57 +14 54 34.7 20.1 V G96 – Mt. Lemmon Survey MPS 450868
2013 01 05.31168 07 26 09.96 +14 54 34.0 20.3 V G96 – Mt. Lemmon Survey MPS 450868
2013 01 05.31752 07 26 09.60 +14 54 33.6 20.4 V G96 – Mt. Lemmon Survey MPS 450868
2013 01 07.95994 07 23 45.11 +14 51 04.2 20.7   J43 – Oukaimeden Observatory, Marrakech MPS 450868
2013 01 07.98350 07 23 43.83 +14 51 02.5 20.0   J43 – Oukaimeden Observatory, Marrakech MPS 450868
2013 01 08.00695 07 23 42.42 +14 51 00.7 20.5   J43 – Oukaimeden Observatory, Marrakech MPS 450868
2013 01 08.03004 07 23 41.19 +14 50 59.1 20.4   J43 – Oukaimeden Observatory, Marrakech MPS 450868
2013 01 21.46784 07 11 43.502 +14 38 19.47 20.0 i F51 – Pan-STARRS 1, Haleakala MPS 453172
2013 01 21.48078 07 11 42.834 +14 38 18.82 19.9 i F51 – Pan-STARRS 1, Haleakala MPS 453172
2015 07 09.34858 16 27 19.292 -23 31 12.70 20.7 w F51 – Pan-STARRS 1, Haleakala MPS 615067
2015 07 09.36037 16 27 18.963 -23 31 09.45 20.6 w F51 – Pan-STARRS 1, Haleakala MPS 615067
2015 07 09.37213 16 27 18.644 -23 31 06.29 20.7 w F51 – Pan-STARRS 1, Haleakala MPS 615067
2015 07 09.38407 16 27 18.319 -23 31 03.06 20.9 w F51 – Pan-STARRS 1, Haleakala MPS 615067
2015 07 12.35139 16 26 07.963 -23 17 59.17 21.0 w F51 – Pan-STARRS 1, Haleakala MPS 615841
2015 07 12.36322 16 26 07.686 -23 17 56.08 21.1 w F51 – Pan-STARRS 1, Haleakala MPS 615841
2015 07 12.37485 16 26 07.413 -23 17 52.99 21.1 w F51 – Pan-STARRS 1, Haleakala MPS 615841
2015 07 12.38681 16 26 07.143 -23 17 49.90 20.9 w F51 – Pan-STARRS 1, Haleakala MPS 615841
2016 06 02.44003 22 46 00.82 +03 53 05.8 21.2 V G96 – Mt. Lemmon Survey MPS 713744
2016 06 02.44443 22 46 00.93 +03 53 08.2 20.9 V G96 – Mt. Lemmon Survey MPS 713744
2016 06 02.44884 22 46 01.21 +03 53 11.0 20.7 V G96 – Mt. Lemmon Survey MPS 713744
2016 06 02.45335 22 46 01.33 +03 53 13.2   G96 – Mt. Lemmon Survey MPS 713744
2016 07 17.44844 23 01 10.810 +09 52 08.89 20.5 i F51 – Pan-STARRS 1, Haleakala MPS 721112
2016 07 17.47251 23 01 10.617 +09 52 17.12 20.5 i F51 – Pan-STARRS 1, Haleakala MPS 721112
2016 07 17.48447 23 01 10.528 +09 52 21.23 20.4 i F51 – Pan-STARRS 1, Haleakala MPS 721112
2016 07 17.49328 23 01 10.464 +09 52 24.33 20.7 i F51 – Pan-STARRS 1, Haleakala MPS 721112
2016 07 17.50595 23 01 10.368 +09 52 28.43 20.7 i F51 – Pan-STARRS 1, Haleakala MPS 721112
2016 07 17.51864 23 01 10.268 +09 52 33.01 20.6 i F51 – Pan-STARRS 1, Haleakala MPS 721112
2016 07 17.53133 23 01 10.170 +09 52 37.22 20.6 i F51 – Pan-STARRS 1, Haleakala MPS 721112
2016 08 02.41159 22 56 45.682 +11 01 58.74 20.2 w F51 – Pan-STARRS 1, Haleakala MPS 723222
2016 08 02.42345 22 56 45.348 +11 02 00.82 20.2 w F51 – Pan-STARRS 1, Haleakala MPS 723222
2016 08 02.43528 22 56 45.020 +11 02 02.94 20.3 w F51 – Pan-STARRS 1, Haleakala MPS 723222
2016 08 02.44714 22 56 44.689 +11 02 05.12 20.4 w F51 – Pan-STARRS 1, Haleakala MPS 723222
2016 08 07.05999 22 54 29.57 +11 13 38.7 19.9   J43 – Oukaimeden Observatory, Marrakech MPS 724822
2016 08 07.06895 22 54 29.28 +11 13 39.4 20.2   J43 – Oukaimeden Observatory, Marrakech MPS 724822
2016 08 07.07792 22 54 28.93 +11 13 40.3 20.3   J43 – Oukaimeden Observatory, Marrakech MPS 724822
2016 08 07.08692 22 54 28.65 +11 13 40.7 20.5   J43 – Oukaimeden Observatory, Marrakech MPS 724822
2016 08 30.28278 22 38 32.95 +11 05 33.0 19.6 V G96 – Mt. Lemmon Survey MPS 727330
2016 08 30.28981 22 38 32.60 +11 05 31.5 19.7 V G96 – Mt. Lemmon Survey MPS 727330
2016 08 30.29680 22 38 32.25 +11 05 30.7 19.5 V G96 – Mt. Lemmon Survey MPS 727330
2016 08 30.30376 22 38 31.91 +11 05 29.5 19.7 V G96 – Mt. Lemmon Survey MPS 727330
2016 08 30.33919 22 38 30.21 +11 05 23.7 19.9 V G96 – Mt. Lemmon Survey MPS 727330
2016 08 30.35596 22 38 29.38 +11 05 21.0 19.7 V G96 – Mt. Lemmon Survey MPS 727330
2016 08 30.36429 22 38 28.98 +11 05 19.6 19.9 V G96 – Mt. Lemmon Survey MPS 727330
2016 08 30.64065 22 38 16.12 +11 04 34.7 19.7 R D29 – Purple Mountain Observatory, XuYi Station MPS 727330
2016 08 30.64153 22 38 16.08 +11 04 33.6 20.4 R D29 – Purple Mountain Observatory, XuYi Station MPS 727330
